Orbital Elements at Epoch 2459200.5 (2020-Dec-17.0) TDB
Reference: JPL 22 (heliocentric ecliptic J2000)
Element | Value | Uncertainty (1-sigma) | Units |
e | .2254220805318291 | 4.1927e-08 | |
a | 2.362214954273838 | 7.3355e-09 | au |
q | 1.82971954461803 | 9.7704e-08 | au |
i | 3.313346169391587 | 4.6106e-06 | deg |
node | 36.29868963542588 | 7.0413e-05 | deg |
peri | 352.8157832837286 | 7.1276e-05 | deg |
M | 44.16479252783992 | 9.5974e-06 | deg |
tp | 2459037.813602430564 (2020-Jul-07.31360243) | 3.5214e-05 | TDB |
period | 1326.103888930951 3.63 | 6.177e-06 1.691e-08 | d yr |
n | .2714719434917101 | 1.2645e-09 | deg/d |
Q | 2.894710363929645 | 8.9891e-09 | au |
|
| | Orbit Determination Parameters
Additional Information
|